Home > Weather > Düren > Past weeks

Flag for Germany Past Weather in Düren, North Rhine-Westphalia, Germany — Yesterday and Last 2 Weeks

Now
64 °F

Mild.


Feels Like: 64 °F
Forecast: 56 / 70 °F
Wind: 5 mph from West

Location: Noervenich

Current Time: Jul 30, 2016 at 4:01:09 AM

Latest Report: Jul 30, 2016 at 3:20 AM


Visibility: 4 mi

Pressure: 29.92 "Hg

Humidity: 83%

Dew Point: 59 °F

Location of DürenLocation

Past Weather in Düren — Graph

°F

Düren Temperature Yesterday

Maximum temperature yesterday: 73 °F (at 4:20 PM)
Minimum temperature yesterday: 61 °F (at 4:20 AM)
Average temperature yesterday: 66 °F

High & Low Weather Summary for the Past Weeks

 TemperatureHumidityPressure
High95 °F (Jul 20, 3:20 PM)100% (Jul 24, 3:20 AM)30.33 "Hg (Jul 24, 3:20 AM)
Low50 °F (Jul 15, 4:20 AM)26% (Jul 20, 3:20 PM)29.86 "Hg (Jul 20, 4:20 PM)
Average70 °F71%30.08 "Hg
* Reported Jul 15 2:20 AM — Jul 30 2:20 AM, Düren, Weather by CustomWeather, © 2016

Note: Actual official high and low records may vary slightly from our data, if they occured in-between our weather recording intervals... More about our weather records

Advertising

Düren Weather History for the Previous 24 Hours

Scroll right to see more
 ConditionsComfort  
Time TempWeatherWind HumidityBarometerVisibility
2:20 AM
Sat, Jul 30
64 °FMild.2 mph83%29.92 "Hg4 mi
1:20 AM63 °FMild.2 mph88%29.92 "Hg4 mi
12:20 AM63 °FMild.No wind88%29.92 "Hg4 mi
11:20 PM
Fri, Jul 29
64 °FMild.2 mph88%29.92 "Hg5 mi
10:20 PM64 °FMild.1 mph88%29.92 "Hg5 mi
9:20 PM66 °FMild.7 mph78%29.89 "Hg5 mi
8:20 PM72 °FMild.10 mph69%29.89 "Hg6 mi
7:20 PM73 °FBroken clouds.16 mph65%29.89 "HgN/A
6:20 PM72 °FScattered clouds.13 mph73%29.89 "HgN/A
5:20 PM68 °FSprinkles. Broken clouds.23 mph78%29.89 "HgN/A
4:20 PM73 °FScattered clouds.15 mph61%29.89 "HgN/A
3:20 PM68 °FPartly sunny.6 mph78%29.92 "HgN/A
2:20 PM70 °FBroken clouds.14 mph73%29.92 "HgN/A
1:20 PM68 °FBroken clouds.12 mph78%29.92 "HgN/A
12:20 PM68 °FPartly sunny.2 mph83%29.92 "HgN/A
12:00 PM66 °FBroken clouds.3 mph88%29.92 "HgN/A
11:20 AM66 °FPartly sunny.6 mph83%29.92 "HgN/A
10:20 AM64 °FPartly sunny.5 mph88%29.92 "HgN/A
10:03 AM64 °FPartly sunny.5 mph88%29.92 "Hg6 mi
9:50 AM63 °FLight rain. Fog.2 mph94%29.92 "Hg2 mi
9:20 AM63 °FLight rain. Partly sunny.3 mph94%29.95 "Hg5 mi
8:20 AM63 °FPartly sunny.5 mph88%29.95 "HgN/A
7:20 AM61 °FLight rain. Partly sunny.3 mph88%29.95 "HgN/A
6:20 AM61 °FPartly cloudy.6 mph88%29.95 "HgN/A
5:20 AM63 °FMild.3 mph83%29.95 "Hg6 mi
4:20 AM61 °FCool.3 mph88%29.95 "Hg6 mi
Weather by CustomWeather, © 2016

See weather overviewHow to use our weather pages